Time,TemperatureF,DewpointF,PressureIn,WindDirection,WindDirectionDegrees,WindSpeedMPH,WindSpeedGustMPH,Humidity,HourlyPrecipIn,Conditions,Clouds,dailyrainin,SoftwareType,DateUTC
2013-06-02 00:22:00,48.0,-99.9,-100.00,NE,38,0.0,3.0,-999,-99.99,,,-99.99,,2013-06-02 08:22:00,
2013-06-02 00:32:00,48.0,-99.9,-100.00,NE,38,0.0,3.0,-999,-99.99,,,-99.99,,2013-06-02 08:32:00,
2013-06-02 00:42:00,48.0,-99.9,-100.00,NE,38,0.0,3.0,-999,-99.99,,,-99.99,,2013-06-02 08:42:00,
2013-06-02 00:52:00,48.0,-99.9,-100.00,NE,38,0.0,3.0,-999,-99.99,,,-99.99,,2013-06-02 08:52:00,
2013-06-02 01:22:00,47.0,-99.9,-100.00,North,11,0.0,0.0,-999,-99.99,,,-99.99,,2013-06-02 09:22:00,
2013-06-02 01:33:00,47.0,-99.9,-100.00,North,11,0.0,0.0,-999,-99.99,,,-99.99,,2013-06-02 09:33:00,
2013-06-02 01:43:00,47.0,-99.9,-100.00,North,11,0.0,0.0,-999,-99.99,,,-99.99,,2013-06-02 09:43:00,
2013-06-02 01:53:00,47.0,-99.9,-100.00,North,11,0.0,0.0,-999,-99.99,,,-99.99,,2013-06-02 09:53:00,
2013-06-02 02:23:00,47.0,-99.9,-100.00,North,11,0.0,0.0,-999,-99.99,,,-99.99,,2013-06-02 10:23:00,
2013-06-02 02:33:00,47.0,-99.9,-100.00,North,11,0.0,0.0,-999,-99.99,,,-99.99,,2013-06-02 10:33:00,
2013-06-02 02:42:00,47.0,-99.9,-100.00,North,11,0.0,0.0,-999,-99.99,,,-99.99,,2013-06-02 10:42:00,
2013-06-02 02:53:00,47.0,-99.9,-100.00,North,11,0.0,0.0,-999,-99.99,,,-99.99,,2013-06-02 10:53:00,
2013-06-02 06:22:00,45.0,-99.9,-100.00,SSE,158,0.0,0.0,-999,-99.99,,,-99.99,,2013-06-02 14:22:00,
2013-06-02 06:32:00,45.0,-99.9,-100.00,SSE,158,0.0,0.0,-999,-99.99,,,-99.99,,2013-06-02 14:32:00,
2013-06-02 06:42:00,45.0,-99.9,-100.00,SSE,158,0.0,0.0,-999,-99.99,,,-99.99,,2013-06-02 14:42:00,
2013-06-02 06:52:00,45.0,-99.9,-100.00,SSE,158,0.0,0.0,-999,-99.99,,,-99.99,,2013-06-02 14:52:00,
2013-06-02 07:22:00,45.0,-99.9,-100.00,SSE,158,0.0,0.0,-999,-99.99,,,-99.99,,2013-06-02 15:22:00,
2013-06-02 07:33:00,45.0,-99.9,-100.00,SSE,158,0.0,0.0,-999,-99.99,,,-99.99,,2013-06-02 15:33:00,
2013-06-02 07:43:00,45.0,-99.9,-100.00,SSE,158,0.0,0.0,-999,-99.99,,,-99.99,,2013-06-02 15:43:00,
2013-06-02 07:53:00,45.0,-99.9,-100.00,SSE,158,0.0,0.0,-999,-99.99,,,-99.99,,2013-06-02 15:53:00,
2013-06-02 10:12:00,46.0,-99.9,-100.00,SSE,158,0.0,0.0,-999,-99.99,,,-99.99,,2013-06-02 18:12:00,
2013-06-02 10:22:00,46.0,-99.9,-100.00,SSE,158,0.0,0.0,-999,-99.99,,,-99.99,,2013-06-02 18:22:00,
2013-06-02 10:32:00,46.0,-99.9,-100.00,SSE,158,0.0,0.0,-999,-99.99,,,-99.99,,2013-06-02 18:32:00,
2013-06-02 10:42:00,46.0,-99.9,-100.00,SSE,158,0.0,0.0,-999,-99.99,,,-99.99,,2013-06-02 18:42:00,
2013-06-02 10:52:00,46.0,-99.9,-100.00,SSE,158,0.0,0.0,-999,-99.99,,,-99.99,,2013-06-02 18:52:00,
2013-06-02 12:22:00,48.0,-99.9,-100.00,North,9,2.0,2.0,-999,-99.99,,,-99.99,,2013-06-02 20:22:00,
2013-06-02 12:32:00,48.0,-99.9,-100.00,North,9,2.0,2.0,-999,-99.99,,,-99.99,,2013-06-02 20:32:00,
2013-06-02 12:42:00,48.0,-99.9,-100.00,North,9,2.0,2.0,-999,-99.99,,,-99.99,,2013-06-02 20:42:00,
2013-06-02 12:52:00,48.0,-99.9,-100.00,North,9,2.0,2.0,-999,-99.99,,,-99.99,,2013-06-02 20:52:00,
2013-06-02 14:23:00,48.0,-99.9,-100.00,WNW,282,0.0,3.0,-999,-99.99,,,-99.99,,2013-06-02 22:23:00,
2013-06-02 14:33:00,48.0,-99.9,-100.00,WNW,282,0.0,3.0,-999,-99.99,,,-99.99,,2013-06-02 22:33:00,
2013-06-02 14:42:00,48.0,-99.9,-100.00,WNW,282,0.0,3.0,-999,-99.99,,,-99.99,,2013-06-02 22:42:00,
2013-06-02 14:53:00,48.0,-99.9,-100.00,WNW,282,0.0,3.0,-999,-99.99,,,-99.99,,2013-06-02 22:53:00,
2013-06-02 16:12:00,53.0,-99.9,-100.00,North,7,0.0,3.0,-999,-99.99,,,-99.99,,2013-06-03 00:12:00,
2013-06-02 16:22:00,53.0,-99.9,-100.00,North,7,0.0,3.0,-999,-99.99,,,-99.99,,2013-06-03 00:22:00,
2013-06-02 16:32:00,53.0,-99.9,-100.00,North,7,0.0,3.0,-999,-99.99,,,-99.99,,2013-06-03 00:32:00,
2013-06-02 16:42:00,53.0,-99.9,-100.00,North,7,0.0,3.0,-999,-99.99,,,-99.99,,2013-06-03 00:42:00,
2013-06-02 16:52:00,53.0,-99.9,-100.00,North,7,0.0,3.0,-999,-99.99,,,-99.99,,2013-06-03 00:52:00,
2013-06-02 18:22:00,56.0,-99.9,-100.00,WNW,302,6.0,9.0,-999,-99.99,,,-99.99,,2013-06-03 02:22:00,
2013-06-02 18:32:00,56.0,-99.9,-100.00,WNW,302,6.0,9.0,-999,-99.99,,,-99.99,,2013-06-03 02:32:00,
2013-06-02 18:42:00,56.0,-99.9,-100.00,WNW,302,6.0,9.0,-999,-99.99,,,-99.99,,2013-06-03 02:42:00,
2013-06-02 18:52:00,56.0,-99.9,-100.00,WNW,302,6.0,9.0,-999,-99.99,,,-99.99,,2013-06-03 02:52:00,
2013-06-02 19:12:00,55.0,-99.9,-100.00,North,0,0.0,5.0,-999,-99.99,,,-99.99,,2013-06-03 03:12:00,
2013-06-02 19:22:00,55.0,-99.9,-100.00,North,0,0.0,5.0,-999,-99.99,,,-99.99,,2013-06-03 03:22:00,
2013-06-02 19:33:00,55.0,-99.9,-100.00,North,0,0.0,5.0,-999,-99.99,,,-99.99,,2013-06-03 03:33:00,
2013-06-02 19:43:00,55.0,-99.9,-100.00,North,0,0.0,5.0,-999,-99.99,,,-99.99,,2013-06-03 03:43:00,
2013-06-02 19:53:00,55.0,-99.9,-100.00,North,0,0.0,5.0,-999,-99.99,,,-99.99,,2013-06-03 03:53:00,
2013-06-02 20:23:00,57.0,-99.9,-100.00,WNW,290,0.0,5.0,-999,-99.99,,,-99.99,,2013-06-03 04:23:00,
2013-06-02 20:33:00,57.0,-99.9,-100.00,WNW,290,0.0,5.0,-999,-99.99,,,-99.99,,2013-06-03 04:33:00,
2013-06-02 20:42:00,57.0,-99.9,-100.00,WNW,290,0.0,5.0,-999,-99.99,,,-99.99,,2013-06-03 04:42:00,
2013-06-02 20:53:00,57.0,-99.9,-100.00,WNW,290,0.0,5.0,-999,-99.99,,,-99.99,,2013-06-03 04:53:00,
2013-06-02 21:13:00,56.0,-99.9,-100.00,North,8,0.0,0.0,-999,-99.99,,,-99.99,,2013-06-03 05:13:00,
2013-06-02 21:22:00,56.0,-99.9,-100.00,North,8,0.0,0.0,-999,-99.99,,,-99.99,,2013-06-03 05:22:00,
2013-06-02 21:32:00,56.0,-99.9,-100.00,North,8,0.0,0.0,-999,-99.99,,,-99.99,,2013-06-03 05:32:00,
2013-06-02 21:43:00,56.0,-99.9,-100.00,North,8,0.0,0.0,-999,-99.99,,,-99.99,,2013-06-03 05:43:00,
2013-06-02 21:52:00,56.0,-99.9,-100.00,North,8,0.0,0.0,-999,-99.99,,,-99.99,,2013-06-03 05:52:00,
2013-06-02 22:22:00,53.0,-99.9,-100.00,West,261,0.0,0.0,-999,-99.99,,,-99.99,,2013-06-03 06:22:00,
2013-06-02 22:32:00,53.0,-99.9,-100.00,West,261,0.0,0.0,-999,-99.99,,,-99.99,,2013-06-03 06:32:00,
2013-06-02 22:42:00,53.0,-99.9,-100.00,West,261,0.0,0.0,-999,-99.99,,,-99.99,,2013-06-03 06:42:00,
2013-06-02 22:53:00,53.0,-99.9,-100.00,West,261,0.0,0.0,-999,-99.99,,,-99.99,,2013-06-03 06:53:00,
2013-06-02 23:22:00,49.0,-99.9,-100.00,South,183,0.0,0.0,-999,-99.99,,,-99.99,,2013-06-03 07:22:00,
2013-06-02 23:32:00,49.0,-99.9,-100.00,South,183,0.0,0.0,-999,-99.99,,,-99.99,,2013-06-03 07:32:00,
2013-06-02 23:42:00,49.0,-99.9,-100.00,South,183,0.0,0.0,-999,-99.99,,,-99.99,,2013-06-03 07:42:00,
2013-06-02 23:52:00,49.0,-99.9,-100.00,South,183,0.0,0.0,-999,-99.99,,,-99.99,,2013-06-03 07:52:00,